Wind_Speed
27 26 26 26 25 25 24 24 23 22 22 21 20 20 18 17 16 15 14 13 13 13 12 12 12 13 13 12 11 11 11 11 12 13 14 14 16 17 18 20 21 22 22 21 20 20 21 21 21 20 18 15 11 6 5 9 12 13 14 15 16 16 17 17 17 17 17 16 15 14 13 13 13 14 15 16 16 16 16 17 17 17 16 15 13 12 12 11
29 29 28 28 28 27 27 26 26 25 25 24 23 22 21 20 19 18 17 16 15 14 13 13 13 13 13 13 12 10 10 10 10 11 12 12 13 14 15 17 18 20 20 20 20 19 19 20 20 20 20 18 15 10 5 7 12 14 15 16 16 16 17 18 18 17 17 16 16 14 13 13 13 14 14 14 13 13 13 14 14 12 10 9 7 7 7 7
31 31 31 30 30 30 29 29 28 28 27 27 27 26 25 24 22 21 20 19 18 17 16 15 14 14 14 14 13 12 11 10 10 9 10 11 11 12 13 14 15 17 18 19 19 19 18 18 19 19 20 20 19 15 9 5 9 13 16 17 16 15 16 17 17 16 16 16 15 14 13 13 13 12 12 10 9 9 8 8 7 5 4 3 3 3 3 3
33 33 32 32 32 31 31 31 30 30 30 29 29 29 28 27 26 25 24 22 21 21 20 18 16 16 16 15 15 14 13 11 11 10 9 9 10 10 10 11 12 14 15 17 18 18 18 17 18 18 19 20 21 19 14 7 5 10 15 17 15 14 14 14 14 14 14 14 14 14 13 12 11 10 8 6 4 4 5 4 3 3 2 2 3 3 2 2
33 33 33 32 32 32 31 31 31 31 31 31 31 30 30 29 29 28 27 26 25 24 23 22 19 18 17 17 16 16 15 13 12 12 11 9 9 10 10 9 10 11 12 14 16 17 18 17 17 17 18 19 21 21 19 12 5 5 11 15 15 14 13 12 11 12 12 13 13 12 11 10 8 7 5 3 3 4 6 5 5 4 2 3 3 3 2 2
34 33 33 33 32 32 31 31 30 30 30 31 31 31 30 30 30 30 29 29 28 27 26 25 23 21 20 18 18 17 17 16 14 13 14 12 10 10 10 9 8 8 9 11 13 15 16 17 17 16 17 19 21 22 21 17 10 2 6 11 14 14 13 11 10 12 12 12 12 11 10 9 8 5 4 5 5 7 7 6 4 2 2 3 3 3 3 3
37 36 36 35 35 34 33 32 32 31 31 31 31 31 30 30 30 30 29 29 29 29 29 28 27 25 23 21 19 18 18 19 17 15 15 14 12 10 10 10 9 8 7 8 10 12 14 16 17 16 16 17 20 22 23 20 15 8 1 7 12 14 14 12 11 12 12 13 14 12 11 10 8 7 8 8 9 8 6 4 2 2 2 3 3 4 4 4
40 40 40 39 39 38 37 36 35 35 34 34 33 33 32 31 31 30 29 29 29 30 30 30 29 28 27 24 22 20 20 21 20 18 16 16 15 13 11 11 10 8 7 6 7 9 11 13 15 16 15 16 18 21 22 21 19 13 6 2 7 11 12 12 12 13 13 15 15 14 12 11 11 10 11 11 10 8 5 3 3 3 4 4 4 4 4 3
44 44 43 43 43 42 41 41 40 39 38 38 37 36 35 34 33 32 31 30 29 29 29 30 31 31 29 27 24 22 22 23 22 21 19 17 17 17 15 13 12 10 9 7 5 7 9 10 12 14 14 14 15 18 21 22 20 17 12 5 3 7 10 11 12 13 14 15 16 15 14 12 12 11 11 11 10 7 5 4 5 5 5 6 6 6 4 2
47 47 47 47 46 46 45 44 43 43 42 42 41 40 39 38 37 35 34 33 32 30 30 30 31 32 31 29 26 24 26 26 24 24 23 21 19 19 18 16 15 13 11 9 7 5 6 8 9 11 12 13 13 15 19 21 21 19 15 10 4 4 7 10 12 13 14 15 16 15 14 13 11 10 9 9 8 7 6 5 5 6 6 6 7 6 4 4
50 50 49 49 49 49 49 48 47 46 46 46 45 44 43 42 41 39 38 36 35 34 33 32 31 31 31 30 28 28 31 29 26 26 26 25 23 22 21 19 18 16 14 12 9 7 5 6 7 8 9 11 11 12 15 18 19 19 17 14 8 3 5 9 11 13 14 15 16 16 15 13 11 9 8 7 7 6 5 5 6 7 6 6 5 4 5 7
52 52 52 52 52 52 52 51 50 50 50 49 49 49 47 46 45 43 42 40 39 38 36 35 34 33 31 30 30 31 34 31 28 28 27 28 28 25 24 23 21 20 18 15 13 10 7 5 6 6 6 8 9 9 11 14 17 17 17 15 12 7 2 7 11 13 14 16 17 17 16 15 13 10 9 7 6 4 4 4 5 5 4 2 3 6 9 12
54 54 54 54 54 55 55 54 54 53 53 53 53 53 52 51 49 48 46 45 43 42 40 39 38 37 34 31 32 33 34 33 30 29 29 30 30 29 27 26 24 23 21 19 17 14 10 7 5 5 5 5 6 7 8 9 12 15 15 16 14 11 7 4 7 11 13 15 16 16 15 14 12 10 9 7 5 4 3 2 3 2 3 5 8 11 13 15
56 56 56 56 56 57 57 57 57 56 56 56 56 56 55 55 53 52 51 49 48 46 45 43 42 41 38 34 35 35 35 34 32 31 32 32 32 32 31 29 27 25 24 23 21 18 15 11 7 6 6 4 4 5 6 7 8 10 13 14 14 12 9 8 7 9 11 12 13 12 12 12 10 9 7 6 5 5 4 4 4 5 8 10 13 16 17 18
57 58 57 57 58 58 59 59 59 59 59 59 59 59 59 58 57 56 55 53 52 51 49 48 46 45 42 39 39 38 37 35 33 33 34 35 34 34 33 32 30 28 27 26 25 23 20 17 12 9 8 6 5 3 3 4 5 6 8 11 12 10 8 9 10 11 11 11 11 11 10 10 10 10 10 9 9 8 8 7 8 10 14 17 18 19 19 18
56 57 58 58 59 60 61 61 61 61 61 61 62 62 61 61 61 60 58 57 56 55 54 52 50 49 47 43 42 42 41 39 36 34 35 36 37 36 36 35 33 31 29 28 28 27 24 22 17 13 11 9 8 5 3 2 3 4 3 5 8 8 7 8 10 13 14 13 13 13 13 13 14 14 13 12 11 12 12 13 15 17 18 19 19 19 18 18
51 53 54 55 56 58 60 61 62 62 62 63 64 64 64 64 64 63 62 60 59 58 57 56 54 53 51 48 45 46 46 44 40 37 37 37 38 38 38 37 36 34 32 31 31 30 28 26 23 19 15 13 11 9 7 4 1 2 2 0 4 7 6 6 8 11 13 14 15 15 15 15 14 14 13 13 15 17 18 20 21 20 18 17 17 17 17 17
44 46 48 49 51 53 56 58 59 60 61 62 63 64 65 66 66 66 65 64 62 61 60 59 58 57 55 52 50 49 50 48 45 41 40 39 39 39 39 39 38 37 36 34 33 34 32 30 27 24 20 17 14 13 11 8 5 3 3 4 4 5 6 5 5 7 9 11 13 15 16 15 14 12 12 16 19 19 20 20 19 18 17 16 16 17 18 18
40 41 42 43 45 47 50 53 54 56 58 59 60 62 63 64 66 67 67 67 66 64 63 62 61 60 59 56 54 54 54 53 50 46 43 42 40 40 40 40 39 40 39 37 36 37 36 34 32 30 25 20 17 16 15 12 10 7 6 5 6 6 6 6 4 5 6 7 9 11 14 15 15 13 13 16 18 18 18 18 17 17 18 18 19 19 19 18
39 40 40 40 41 42 44 46 48 51 54 55 57 59 60 61 62 64 66 68 69 68 66 65 64 64 62 59 58 58 58 57 54 50 48 46 44 42 41 41 41 41 41 40 39 40 39 37 36 35 29 24 21 20 18 17 14 11 10 8 7 8 8 8 6 5 5 5 5 7 10 13 15 15 15 16 17 17 17 17 18 19 20 20 19 18 16 15
39 40 40 40 39 39 41 42 44 45 48 50 53 56 57 59 59 60 63 65 67 68 68 67 67 67 64 62 62 61 61 60 58 55 52 51 48 45 44 43 42 41 42 43 42 42 41 40 41 40 34 29 25 23 22 21 19 15 13 12 10 9 10 10 9 7 6 6 5 5 6 9 12 14 15 16 17 17 17 18 19 19 18 16 14 13 12 12
41 42 42 42 40 39 40 40 41 42 43 45 48 50 53 56 57 58 60 63 65 65 66 67 68 69 68 66 65 64 64 64 62 59 56 55 53 50 48 46 44 43 44 44 44 44 42 43 46 44 38 33 28 27 27 25 22 19 17 16 14 12 11 12 12 10 8 8 8 7 7 8 10 12 14 15 17 17 17 18 18 18 16 13 11 9 9 8
43 45 45 45 44 42 42 41 40 40 41 41 43 45 48 51 53 55 56 60 64 63 63 65 66 68 69 69 69 67 66 66 65 63 60 59 57 55 52 50 48 46 45 44 44 45 44 46 50 48 42 37 32 30 30 29 26 24 22 20 18 15 14 13 14 12 11 11 10 9 9 10 11 12 13 14 16 17 17 17 18 17 15 13 11 8 7 6
45 47 47 46 45 44 44 44 43 42 41 40 40 42 43 45 48 51 52 55 61 63 62 63 63 65 67 69 70 70 69 68 67 66 65 63 61 59 56 55 52 48 46 46 46 46 47 49 53 51 45 41 37 33 32 32 31 29 26 24 22 19 18 15 14 15 14 14 13 12 11 11 13 13 13 14 15 17 18 18 18 17 16 15 13 11 9 7
45 46 47 48 47 45 44 44 45 45 45 43 42 41 41 42 43 47 49 50 55 60 60 60 62 63 64 65 68 71 71 70 69 69 69 67 65 63 61 59 56 52 50 50 49 48 49 50 53 53 47 44 41 37 35 36 36 34 30 28 26 24 21 17 17 17 17 17 16 15 13 13 13 14 15 15 15 17 18 19 19 18 18 17 16 14 12 10
45 46 47 48 48 47 45 44 43 44 46 47 47 46 43 42 42 43 46 46 50 55 57 57 60 62 63 64 65 68 70 71 71 71 72 71 69 67 65 62 60 57 55 54 51 50 50 50 54 56 50 46 44 41 39 39 38 37 35 33 30 27 24 21 21 20 19 18 17 16 16 15 15 15 16 17 16 17 19 20 20 20 19 19 19 17 16 14
47 48 50 50 50 49 47 45 44 44 45 47 49 50 48 47 45 43 44 43 46 51 53 54 56 59 61 63 64 66 68 70 71 72 74 74 72 71 69 67 65 63 60 57 54 53 52 52 55 57 52 48 46 45 44 42 41 41 41 39 34 30 28 26 25 23 21 19 17 17 18 17 17 17 16 17 16 18 21 21 21 21 21 21 20 19 18 17
51 51 54 55 54 52 50 47 46 46 47 47 48 49 51 51 51 49 46 43 44 49 51 51 53 56 59 61 63 66 67 68 69 71 74 76 75 74 73 71 70 67 64 62 59 57 56 56 57 59 55 49 47 49 50 46 45 45 45 42 37 34 31 29 28 27 24 19 17 19 19 18 19 18 18 18 18 21 22 22 21 21 21 22 22 21 20 19
55 55 57 59 59 58 56 52 49 49 50 50 49 49 50 52 53 54 52 48 49 51 50 50 51 52 56 59 61 64 66 67 67 69 73 76 77 77 76 75 74 71 68 66 64 61 60 60 60 61 58 52 50 52 53 51 49 48 47 46 41 37 34 32 30 29 26 21 19 22 22 21 20 19 19 21 22 23 22 20 20 20 21 21 22 22 22 22
58 58 58 60 61 61 61 58 54 54 53 53 52 52 51 52 53 55 55 54 55 56 53 50 50 51 54 56 59 61 64 66 67 67 69 74 77 78 78 78 77 75 71 70 68 63 62 63 63 63 60 56 54 54 54 54 53 50 49 48 43 38 36 34 32 31 29 24 22 25 26 24 22 22 23 24 24 23 21 20 21 20 21 21 21 21 22 22
60 60 60 62 63 63 63 62 61 60 58 56 56 55 53 53 53 54 54 54 57 60 58 55 52 52 53 54 56 59 61 65 67 67 67 70 75 78 79 80 80 78 76 74 72 68 66 66 66 65 63 61 58 56 55 56 55 53 51 48 44 39 37 35 34 33 29 25 25 28 29 27 27 27 25 25 24 22 22 23 22 21 21 21 21 20 20 20
64 63 63 63 65 66 65 65 65 64 62 61 60 58 57 56 54 54 54 56 59 60 62 62 57 53 51 51 53 55 58 62 65 67 68 68 72 75 79 80 81 82 80 78 77 73 70 70 70 69 67 65 61 58 58 58 57 56 53 48 44 41 38 36 34 33 31 28 30 33 32 30 32 31 26 26 27 24 24 25 24 22 23 23 22 21 20 20
69 67 67 66 67 68 68 68 68 67 66 66 65 63 62 59 56 55 56 58 61 62 63 66 64 58 54 52 51 51 54 58 60 64 67 68 69 72 77 80 81 83 83 82 81 78 74 73 74 71 69 68 65 62 61 60 58 59 57 51 46 44 41 38 36 35 34 32 35 39 34 31 37 34 27 28 30 26 26 27 26 24 24 24 23 22 22 22
74 72 71 70 70 71 71 72 72 71 70 69 68 67 65 61 59 60 60 61 62 64 65 67 67 66 63 58 54 51 52 54 57 60 64 67 69 70 74 78 81 84 86 85 84 81 78 77 75 73 72 71 69 66 64 63 61 62 61 56 51 48 44 42 41 40 39 38 40 43 35 33 41 38 29 31 31 28 29 30 29 28 27 26 24 24 24 24
79 77 75 74 74 74 75 76 76 76 74 72 71 70 66 63 64 66 66 65 65 66 67 68 69 69 68 65 59 55 53 52 54 58 60 63 67 70 72 75 79 83 86 87 86 85 83 81 79 77 77 76 74 71 69 68 65 65 66 62 54 49 47 47 47 44 44 44 43 43 37 37 45 40 32 32 32 31 33 33 33 32 30 27 26 27 27 26
82 81 80 79 78 78 80 80 81 81 80 77 75 71 67 68 70 71 70 70 70 69 68 69 71 71 71 70 67 63 58 52 51 55 57 60 64 68 71 73 77 81 85 87 88 88 86 85 83 81 81 80 78 76 74 72 68 67 68 63 56 53 52 51 49 47 47 46 44 45 41 42 47 41 34 35 35 35 37 36 36 34 31 31 30 30 29 29
85 85 84 83 83 83 83 84 85 86 85 83 79 73 72 73 75 75 75 75 75 74 73 72 72 72 72 73 72 69 65 59 52 53 56 57 59 64 69 73 76 79 83 86 89 90 90 89 87 84 84 83 81 81 80 77 73 70 69 66 62 60 57 53 52 50 49 46 44 47 45 45 47 42 37 39 39 40 40 39 38 36 34 34 33 32 32 31
89 89 89 88 87 88 88 89 90 90 90 88 83 78 77 78 78 79 79 80 80 79 77 76 75 74 73 75 75 72 70 66 57 53 54 55 56 60 65 71 75 78 81 84 87 91 92 92 89 87 88 88 86 87 85 81 76 73 72 70 67 65 60 56 55 53 51 47 45 47 47 48 49 44 40 42 43 43 43 41 40 39 38 37 36 34 34 33
92 93 93 92 92 92 92 93 94 95 94 91 87 84 83 83 82 82 83 84 84 82 80 79 77 76 75 77 77 74 73 71 63 58 56 55 56 57 60 67 73 78 81 82 86 89 92 95 93 90 92 93 91 90 88 82 77 76 75 73 71 68 64 61 59 56 54 50 48 49 49 49 52 49 44 45 46 46 45 44 42 41 40 39 39 38 36 36
96 97 97 97 97 96 96 97 97 98 97 94 91 89 88 88 87 86 86 88 88 86 83 81 80 78 77 78 79 76 75 74 69 65 59 55 56 56 58 64 69 76 80 81 84 87 90 95 97 94 95 97 93 90 87 83 80 80 77 75 74 71 67 66 62 58 56 53 49 49 49 50 55 54 47 46 48 47 47 46 44 43 42 41 41 40 39 39
100 101 101 101 102 102 102 102 101 101 101 99 97 95 94 93 92 91 91 91 92 89 86 84 82 80 79 79 80 79 77 76 73 69 64 58 58 58 59 61 65 72 79 81 82 85 88 93 98 98 98 98 94 90 87 87 86 85 81 78 78 74 72 72 66 59 58 55 50 49 49 52 57 57 51 49 49 48 48 47 46 45 44 43 43 42 42 42
105 106 106 106 107 108 108 107 106 106 105 103 102 102 101 98 96 95 95 95 95 93 90 87 83 82 81 80 80 80 80 78 75 72 68 63 61 61 61 61 62 68 76 80 82 84 87 90 96 100 99 98 96 93 92 92 91 90 86 84 83 79 78 76 67 61 60 56 52 52 52 54 56 57 57 54 51 50 49 49 49 48 47 46 45 44 44 44
110 111 111 111 112 113 113 113 112 112 111 110 109 108 107 104 102 101 100 99 99 96 93 89 86 84 84 82 82 82 82 80 78 75 71 67 65 64 62 62 63 65 71 79 82 84 85 87 92 98 100 100 99 98 98 97 96 94 91 87 86 82 79 76 68 65 64 59 58 58 55 54 55 58 62 59 56 54 52 52 52 50 49 49 47 46 46 45
116 116 118 118 118 119 119 119 119 119 118 116 115 114 113 111 109 107 106 104 103 100 96 92 89 88 86 85 84 83 83 82 80 77 74 70 69 67 64 64 64 64 69 76 81 82 83 85 89 95 99 102 102 101 101 99 97 96 91 88 86 83 80 78 73 72 69 63 63 60 55 55 57 60 64 64 61 58 55 54 54 52 52 52 50 49 49 47
123 124 125 125 125 125 125 125 124 124 123 121 120 118 117 116 114 112 110 108 107 104 99 95 92 90 89 88 85 84 84 83 82 80 76 72 71 70 68 66 65 66 68 72 77 80 83 85 87 90 95 99 102 102 101 97 96 95 92 89 87 85 83 80 78 78 72 64 64 61 56 58 59 60 65 68 65 61 59 57 56 55 55 54 53 52 50 49
129 130 132 132 131 131 131 131 130 128 127 125 123 121 120 118 117 115 113 111 109 107 103 97 94 92 91 89 87 85 85 84 83 81 78 75 73 72 70 67 67 68 67 69 73 78 83 84 84 87 91 95 100 103 102 99 98 98 96 93 91 89 87 85 83 81 72 67 67 62 59 61 60 59 66 70 68 65 62 61 59 58 58 57 55 53 52 52
135 135 136 137 137 136 136 136 135 133 132 130 127 125 123 121 119 117 115 113 111 110 106 101 97 94 91 90 88 86 86 85 84 82 79 77 74 73 72 69 68 69 69 69 70 75 80 82 81 84 88 91 96 102 104 103 102 101 100 98 96 93 91 90 87 81 74 74 72 65 62 63 59 59 67 72 71 68 66 64 62 60 60 59 57 55 54 53
136 136 136 137 138 138 138 137 137 136 134 132 130 128 126 124 122 119 117 115 114 112 108 103 98 95 92 91 89 87 86 85 85 82 80 78 75 74 74 72 70 70 69 68 68 71 76 79 81 83 86 89 93 100 104 105 104 103 103 101 99 96 95 93 88 83 81 81 75 68 66 64 59 61 68 73 74 71 69 68 65 62 61 61 60 58 55 54
134 134 134 134 134 135 136 136 135 134 132 131 129 127 126 125 124 122 120 116 113 111 107 102 98 95 92 92 90 88 87 86 85 83 81 78 75 75 75 73 72 72 70 68 67 68 70 75 80 82 84 88 91 95 102 106 106 105 105 103 101 99 97 94 90 88 87 85 78 72 71 66 61 64 70 75 76 74 73 70 66 63 63 62 62 60 57 57
128 127 127 126 126 127 128 130 129 128 127 125 124 124 123 123 123 122 119 115 110 108 105 101 98 95 93 92 90 89 87 86 84 83 81 78 76 76 76 75 74 73 71 68 67 66 65 71 78 81 82 86 89 92 98 103 107 108 106 105 103 101 99 96 93 91 91 88 83 78 76 70 65 67 73 77 77 76 73 70 67 65 65 64 63 60 59 60
116 115 114 114 114 114 115 117 117 116 116 116 116 116 117 118 118 117 115 112 109 107 104 101 98 94 91 90 89 88 86 84 83 83 80 77 76 76 77 76 75 74 72 69 67 66 64 68 75 78 79 83 86 90 94 99 105 110 109 107 105 102 100 97 94 93 91 89 86 82 78 72 68 70 75 78 78 77 74 71 69 68 66 64 63 61 61 62
103 102 102 101 100 100 102 103 103 103 104 105 105 106 108 110 111 111 111 111 109 107 104 99 95 91 88 87 88 87 85 83 82 80 78 76 76 77 78 77 76 74 71 68 66 64 63 66 71 73 75 80 84 88 92 96 103 109 110 108 105 102 100 97 95 93 92 90 88 85 78 72 71 74 77 79 79 77 74 72 71 69 66 64 63 62 63 64
Wind_Direction
258 259 260 261 262 263 265 266 268 269 271 272 273 274 275 276 276 277 278 282 288 294 299 305 311 317 324 332 344 351 354 2 9 13 17 24 31 35 39 41 41 38 36 37 40 44 47 48 47 44 38 28 14 347 282 242 231 231 236 235 231 228 226 225 227 230 233 233 233 236 244 253 261 267 269 270 271 272 272 272 271 270 270 269 268 267 267 268
259 259 260 261 262 263 264 265 266 268 269 270 271 271 272 273 274 275 276 277 279 283 288 293 299 304 311 317 326 335 341 346 355 3 6 12 22 29 33 37 41 39 36 34 34 37 40 42 43 43 40 32 21 4 326 254 233 228 229 231 231 229 227 226 225 230 236 239 239 241 246 255 262 266 270 273 274 274 272 271 269 267 266 264 261 262 263 262
259 260 260 261 261 262 263 264 265 266 267 269 270 270 270 271 271 272 273 275 276 277 279 282 288 294 299 306 313 319 326 332 338 346 354 359 7 18 26 31 36 39 37 34 32 31 33 35 37 39 39 35 27 15 356 290 236 227 227 227 229 230 230 229 226 229 237 244 247 249 252 257 262 267 270 271 268 264 260 259 258 254 250 246 239 234 234 226
260 261 261 262 262 262 262 263 264 265 265 266 267 269 269 270 270 271 271 271 273 275 276 276 279 283 289 295 302 307 312 318 321 325 334 344 351 0 13 21 29 35 36 34 31 28 27 29 31 34 35 35 31 23 13 348 261 227 224 224 224 227 229 229 228 230 237 246 251 255 257 260 263 264 258 247 239 229 219 210 186 162 162 176 179 174 170 152
262 262 263 263 263 264 264 264 265 265 265 266 266 267 267 268 268 269 270 270 270 272 273 275 275 276 280 286 292 297 301 305 307 309 314 325 335 340 351 5 17 27 32 31 30 29 25 24 25 29 32 34 34 29 23 15 342 243 224 220 217 220 224 223 224 230 235 242 249 252 254 255 254 249 234 204 186 178 165 154 138 129 146 179 189 182 173 162
263 264 264 264 264 264 265 265 266 266 266 267 267 267 267 267 267 267 268 269 270 270 271 272 273 273 274 277 282 287 292 294 295 298 302 309 317 323 330 341 356 10 23 27 26 27 26 22 20 24 30 34 37 34 29 26 22 358 226 220 214 214 217 213 214 224 229 233 237 240 240 241 237 224 203 186 182 171 156 147 143 145 192 217 216 211 211 214
264 264 265 265 265 265 265 265 265 265 266 266 267 267 267 267 268 267 266 266 267 268 269 270 271 271 271 271 274 279 282 284 287 289 293 299 302 307 312 318 330 343 1 18 21 21 24 23 19 20 27 33 39 40 34 31 32 38 114 217 216 214 212 206 211 217 220 224 228 228 225 225 218 201 194 194 191 182 169 164 187 232 242 246 243 240 239 241
265 265 265 265 265 265 265 265 264 264 264 265 265 266 266 266 267 268 267 266 265 266 266 267 269 269 269 268 269 271 274 276 280 280 282 289 292 293 296 300 307 316 330 352 11 14 16 22 21 17 22 31 40 45 41 35 36 41 51 154 207 214 208 201 211 217 217 222 225 221 217 215 207 198 196 196 196 196 201 223 261 268 269 273 273 267 259 254
266 266 266 266 266 266 265 265 265 264 264 264 264 264 264 264 264 265 266 266 266 265 265 265 265 266 267 267 266 267 266 268 273 275 275 278 282 285 285 288 291 296 306 318 343 2 7 15 22 19 17 26 38 47 48 42 38 41 47 65 156 196 197 196 213 222 218 221 224 220 216 211 204 199 199 198 202 211 227 253 279 285 285 288 288 281 266 233
268 267 267 267 267 267 267 266 265 265 264 264 263 263 263 262 262 263 263 264 265 265 264 264 263 263 264 265 265 265 261 260 265 270 272 271 273 276 277 279 282 284 288 296 309 333 353 0 13 20 16 20 30 45 53 49 41 41 46 53 80 159 185 198 218 226 220 222 226 224 217 207 201 199 201 204 211 224 242 266 289 294 292 292 291 278 248 188
270 269 269 268 268 268 268 267 267 266 265 265 264 263 263 262 262 261 261 261 262 262 263 263 263 262 262 262 263 262 259 257 259 264 269 269 268 270 272 275 277 279 280 283 290 299 323 341 353 14 17 17 21 35 52 55 48 41 43 49 59 103 193 206 220 222 219 222 227 226 217 203 196 197 201 206 215 229 252 277 293 293 291 291 281 250 197 156
271 271 270 270 269 269 268 268 267 267 266 266 265 265 264 263 262 261 260 260 260 260 260 261 261 261 261 261 260 258 259 259 257 259 263 266 267 267 269 272 274 276 277 278 279 282 288 306 325 346 9 16 18 25 41 54 57 49 44 46 54 64 132 202 213 215 215 222 226 224 216 202 195 195 196 199 209 224 251 279 288 283 280 264 205 167 147 134
269 269 270 270 270 269 269 268 267 267 266 266 266 265 265 264 263 262 261 260 259 258 258 259 259 260 259 259 259 257 258 259 257 257 257 260 264 266 266 267 270 273 275 276 274 274 274 273 289 311 331 2 12 17 26 43 56 58 52 46 46 54 67 126 193 208 211 218 223 220 211 202 199 198 197 200 207 213 226 252 256 225 174 159 152 141 131 126
269 269 269 269 269 269 269 268 268 267 266 266 266 265 265 264 263 263 262 260 259 258 257 257 257 258 258 257 257 257 256 257 256 255 254 254 258 261 263 263 265 268 271 272 272 272 271 266 263 275 292 312 343 5 17 25 41 56 60 53 45 48 64 92 135 173 190 201 206 204 199 196 194 190 179 172 170 159 149 148 163 163 148 144 138 129 124 121
270 269 269 269 268 268 268 268 268 267 267 266 266 265 265 264 263 262 261 260 259 259 258 257 256 256 256 255 256 256 256 255 254 253 252 251 252 255 259 260 260 262 265 268 270 270 269 266 260 256 266 275 285 314 358 14 20 39 61 68 60 55 68 93 113 130 145 160 163 161 160 154 146 138 129 128 132 132 130 134 144 144 139 135 129 123 120 117
270 269 269 268 268 268 267 267 267 267 267 266 266 266 265 265 264 262 261 260 259 258 258 257 256 255 254 252 253 255 255 253 251 250 250 249 249 249 253 255 256 257 260 262 266 267 267 267 263 256 253 257 264 270 279 337 1 6 37 81 88 80 80 98 110 113 117 122 126 129 126 121 118 114 112 117 125 127 127 129 133 135 133 130 125 121 117 115
271 271 270 269 269 268 267 267 266 266 265 265 265 265 265 265 264 263 262 260 259 258 257 256 255 254 254 252 251 252 253 253 250 248 248 248 248 247 248 251 253 254 255 257 260 263 264 264 263 259 253 250 252 258 257 252 278 318 316 243 128 113 102 110 118 114 110 108 108 112 115 117 117 111 109 119 124 125 126 130 133 133 131 128 125 121 118 116
274 273 272 271 271 270 269 268 268 267 265 265 264 263 263 264 264 263 263 261 259 257 256 256 255 254 253 252 250 250 251 251 250 247 246 246 247 248 247 248 251 252 251 252 255 258 260 261 261 259 253 248 248 253 254 247 238 243 264 262 223 165 138 130 131 124 116 110 106 105 108 113 115 116 124 128 127 128 131 135 138 136 132 129 125 120 118 117
278 277 275 274 272 271 270 270 269 268 267 266 265 264 262 262 262 262 262 261 260 258 256 255 254 253 252 251 250 249 249 249 249 247 246 245 244 246 247 247 248 250 250 249 251 254 257 258 258 257 252 247 248 250 250 248 241 232 235 244 247 225 187 165 157 143 127 117 114 110 110 114 119 133 147 140 133 136 140 142 142 139 135 132 127 122 118 117
284 282 280 278 276 275 273 271 270 269 268 267 266 265 264 263 262 262 261 261 260 259 257 256 254 253 252 251 249 248 248 248 247 246 246 245 243 242 244 245 246 247 249 248 248 250 253 256 256 255 252 247 246 247 247 247 243 235 233 231 235 241 225 200 184 175 163 147 133 120 118 123 129 139 148 144 140 142 145 146 144 141 138 136 133 129 124 121
290 289 286 284 281 280 279 276 273 270 269 267 266 265 265 264 263 262 262 261 260 258 257 256 255 253 252 250 249 248 248 248 247 245 244 244 243 241 241 242 244 245 246 247 247 248 250 253 254 254 252 247 244 246 248 246 243 238 236 232 226 233 237 224 206 191 193 197 188 166 145 139 142 145 148 149 147 148 149 149 148 146 145 144 142 139 133 128
297 296 295 292 289 286 285 282 280 277 273 270 267 265 264 264 263 262 262 261 260 259 257 256 254 254 252 250 248 247 247 247 247 245 243 243 242 241 239 239 240 242 243 245 246 246 247 249 252 253 251 248 244 245 248 246 242 239 238 236 228 224 231 233 223 204 195 209 211 198 176 159 157 157 157 157 155 155 156 156 156 156 156 157 157 155 147 137
299 300 300 300 297 295 293 290 288 285 281 277 273 269 265 263 262 262 261 261 261 259 258 257 255 254 252 251 249 247 245 246 246 245 243 242 241 240 239 238 237 238 241 243 244 244 244 245 250 252 251 249 244 242 245 247 245 240 238 237 231 225 225 228 230 218 203 206 209 201 188 175 170 165 163 167 167 165 165 165 167 168 169 172 176 181 179 168
297 299 300 301 301 301 300 298 297 294 290 285 280 276 271 266 263 261 260 260 261 259 258 257 256 254 253 251 250 248 245 244 245 245 243 242 240 239 238 238 236 236 238 241 242 242 241 243 248 250 250 249 246 242 242 246 247 242 238 237 233 229 225 223 228 226 216 211 208 204 198 187 181 173 169 175 179 178 176 176 177 180 183 186 191 200 206 209
294 295 297 298 299 299 300 301 301 300 298 294 289 284 279 274 269 265 261 259 261 260 257 256 256 255 253 252 251 249 246 244 243 243 243 242 241 239 237 237 236 235 235 238 240 240 240 242 247 249 249 249 247 244 241 243 246 245 241 238 233 229 225 223 227 226 221 218 214 210 206 198 194 188 183 185 189 190 189 187 188 191 194 197 201 208 215 222
288 290 292 293 295 295 296 298 299 300 300 299 296 293 288 283 277 272 266 262 262 261 258 255 255 254 254 252 250 249 247 245 242 241 241 241 240 239 238 236 235 234 234 235 237 239 240 241 245 247 247 247 247 246 242 241 244 247 244 238 232 228 225 225 228 227 223 222 221 218 214 208 204 202 199 195 197 202 201 198 199 200 203 206 210 215 221 228
284 286 288 290 291 291 292 293 295 297 297 297 297 297 295 291 286 281 275 269 267 266 261 256 254 252 252 251 250 250 248 245 242 240 240 240 239 239 238 236 234 233 233 233 234 237 239 239 242 245 245 245 246 246 244 241 241 244 244 239 233 229 225 225 229 229 226 224 225 227 223 218 214 211 209 203 204 213 211 208 208 209 212 215 217 222 226 231
284 286 288 289 290 290 290 290 291 292 292 293 295 296 295 294 292 289 284 278 275 272 267 261 256 252 251 250 249 250 249 246 244 241 240 239 238 237 237 236 235 233 232 232 231 233 236 237 239 243 243 242 243 244 244 242 239 240 242 241 235 230 226 225 228 231 229 224 227 235 233 227 224 219 215 211 211 219 219 215 215 216 219 221 223 225 227 231
285 287 288 288 289 290 289 289 290 289 289 290 292 293 293 292 293 292 292 289 284 279 273 267 262 257 252 250 249 249 249 248 245 242 241 240 238 236 236 236 236 234 232 232 231 230 234 237 239 242 242 240 239 241 243 243 240 239 241 242 238 232 229 226 227 232 231 224 227 237 238 234 232 227 222 218 217 222 224 222 221 223 224 226 227 228 228 230
286 286 287 287 289 289 289 289 289 288 288 289 290 290 291 291 291 291 294 292 286 284 280 273 268 263 256 252 250 249 249 249 247 244 241 241 240 237 235 235 236 235 232 232 231 229 232 237 239 241 242 240 238 240 242 244 243 241 240 241 239 235 232 229 228 230 230 226 228 236 239 238 237 232 229 227 225 227 228 227 226 228 230 231 232 232 232 232
284 284 285 285 286 288 289 289 288 287 287 288 287 287 288 289 290 292 292 285 281 284 286 281 274 269 262 256 252 250 249 249 249 246 242 240 241 240 236 234 234 235 233 232 231 228 229 234 237 240 241 240 239 239 242 244 245 244 241 241 240 238 235 231 229 230 231 229 232 237 239 239 239 234 233 236 234 230 231 232 230 231 235 237 236 237 238 236
281 281 282 283 284 285 286 287 287 287 287 286 285 286 286 287 290 292 289 281 278 282 284 283 281 276 270 263 255 251 249 248 248 248 245 241 239 240 239 235 233 234 233 232 231 228 227 230 234 236 238 240 238 238 240 243 245 246 244 242 240 240 238 235 232 233 234 233 236 238 236 238 241 235 232 238 239 233 233 237 236 235 238 241 240 240 240 240
279 280 280 281 282 283 284 284 284 285 285 285 285 284 284 285 289 289 286 281 280 279 279 282 284 281 276 271 263 253 248 247 247 248 247 243 239 238 239 238 234 232 232 232 231 229 226 228 232 234 236 239 238 237 239 241 244 246 246 243 241 240 240 238 236 235 235 234 237 238 233 236 243 237 229 236 240 237 237 241 241 239 240 242 244 244 242 243
280 280 280 280 280 281 281 282 282 282 282 283 283 282 283 286 287 285 283 282 280 279 278 280 282 282 280 277 270 261 253 248 246 247 246 245 243 239 238 238 236 234 231 230 231 230 227 227 230 232 235 238 238 237 237 238 240 243 244 242 238 238 238 238 236 234 233 232 235 238 233 233 243 240 231 235 240 239 239 242 243 242 242 243 246 247 246 247
280 280 280 280 280 280 280 280 281 281 281 280 280 281 283 285 284 282 282 282 280 278 278 277 278 280 281 280 277 271 263 254 248 247 245 244 244 243 239 237 237 236 233 230 229 230 228 226 228 230 232 235 236 236 235 235 237 240 243 242 238 237 236 236 235 232 232 231 233 238 235 233 241 241 234 236 239 240 241 241 242 243 245 246 246 247 249 250
280 280 280 280 280 279 279 279 280 280 280 279 278 279 282 282 281 281 281 281 279 277 276 276 277 279 279 279 278 275 271 262 252 248 246 242 241 243 242 239 236 236 235 231 229 229 228 226 226 228 230 233 236 237 235 234 234 237 241 243 240 238 236 236 235 233 233 232 232 238 237 236 241 240 236 238 238 240 242 242 243 244 245 245 244 246 249 251
279 280 280 280 279 279 278 278 278 279 279 278 277 278 280 280 280 280 279 279 278 276 275 275 277 279 278 277 276 275 274 270 259 252 248 243 240 239 241 241 238 235 234 233 229 227 227 227 225 226 229 230 233 236 236 234 233 234 238 240 239 237 235 235 235 234 234 233 232 236 238 239 242 240 237 238 239 240 242 243 245 245 244 244 244 245 247 249
279 279 279 279 279 278 277 277 277 278 278 277 277 278 277 278 278 278 278 278 278 276 275 275 276 276 276 274 273 273 273 271 266 258 251 245 242 239 238 240 240 237 234 233 231 228 227 227 226 225 228 229 230 233 234 233 233 233 235 237 238 238 236 234 235 235 236 235 233 236 238 240 242 240 237 239 241 241 243 244 245 245 245 245 245 245 246 248
279 279 279 279 278 278 277 276 276 276 276 276 276 276 275 275 276 276 277 277 277 276 275 273 273 273 273 272 272 271 269 270 269 264 255 247 244 241 238 237 239 239 236 233 231 229 227 227 226 224 227 228 229 231 233 233 233 234 235 237 238 238 237 235 234 234 235 235 233 235 237 240 243 241 236 238 242 243 243 244 244 245 245 245 246 246 247 248
278 278 278 278 278 277 276 276 275 275 275 275 274 274 274 274 274 275 275 276 276 275 274 272 270 271 271 271 271 269 267 267 268 266 261 252 245 243 240 237 237 239 238 234 232 230 227 227 226 224 226 227 228 230 233 234 234 234 234 236 238 239 239 237 235 234 236 236 235 236 237 239 243 244 240 239 243 244 245 245 244 245 245 246 247 248 248 248
277 277 278 278 278 277 277 276 276 275 275 274 273 273 272 272 272 273 273 274 275 274 273 271 268 268 269 269 268 267 265 265 265 266 264 258 250 245 242 240 237 238 239 236 233 230 228 227 226 225 225 227 227 228 231 233 233 233 232 233 236 236 237 238 236 235 236 237 237 238 238 238 243 247 246 243 244 246 247 248 248 247 247 247 248 249 249 250
277 277 277 277 277 277 276 276 275 275 274 273 273 272 271 271 271 271 271 272 273 272 271 269 267 266 266 267 266 265 263 263 263 263 263 261 255 248 244 242 240 238 239 238 235 231 229 227 227 225 225 227 227 226 228 230 231 232 231 231 233 233 234 236 235 234 235 235 235 235 235 237 242 248 249 246 244 246 248 249 249 249 248 249 249 250 250 251
277 277 276 276 275 275 275 275 274 274 274 273 273 272 272 271 271 270 270 271 271 270 269 268 265 263 264 264 264 263 262 261 261 261 261 260 258 252 245 243 242 239 239 239 236 233 230 228 228 227 225 225 227 225 226 228 230 230 230 229 231 233 235 236 235 234 233 232 232 232 233 235 239 244 248 248 246 245 246 248 250 251 251 250 251 251 252 253
276 276 275 274 273 273 273 272 272 272 272 272 272 272 272 271 271 270 270 269 269 268 267 266 264 262 262 262 262 261 260 260 259 259 258 258 258 255 249 245 243 241 239 239 238 236 233 229 228 228 225 225 226 226 226 227 229 231 231 230 230 232 235 236 235 234 233 232 232 233 233 234 235 239 245 248 248 247 247 248 250 252 252 252 252 253 254 255
273 273 272 271 270 270 270 269 269 269 269 270 270 270 270 270 269 269 268 268 267 267 266 264 262 261 260 260 260 259 259 258 257 257 257 256 256 255 252 246 244 242 240 239 238 237 235 231 228 228 227 225 226 228 228 227 229 231 232 231 231 231 233 236 236 236 235 233 234 235 234 234 235 237 242 247 250 250 249 249 249 250 252 252 253 254 255 256
270 270 269 269 268 267 267 267 266 266 266 266 267 267 267 267 266 266 266 265 265 265 264 262 260 258 257 258 258 257 256 256 255 255 254 253 253 254 253 249 245 244 242 239 237 236 236 233 229 228 228 226 225 227 228 227 227 229 230 230 230 230 231 233 234 235 235 233 234 234 233 233 234 236 239 244 248 249 250 250 249 250 251 252 253 254 255 256
269 268 268 267 267 266 265 265 264 264 264 264 264 264 264 263 263 263 263 263 263 262 262 261 259 257 255 255 254 254 253 253 253 253 253 252 252 252 253 251 247 245 243 240 238 237 237 235 231 229 228 227 225 226 227 227 226 227 229 229 229 228 229 230 232 233 234 233 233 232 231 231 232 234 237 240 244 246 248 249 249 250 251 252 254 255 255 256
269 268 267 267 266 265 265 264 263 263 262 262 261 261 261 260 260 260 260 260 260 260 260 259 257 255 253 252 252 251 251 251 251 251 251 251 251 250 251 250 248 245 243 241 239 237 237 236 233 230 228 227 226 225 226 227 227 227 228 229 229 229 229 229 230 231 232 233 232 230 229 229 229 230 234 237 241 243 245 246 248 249 250 252 254 255 257 258
270 269 267 266 265 265 264 264 263 262 261 260 260 259 258 258 258 257 257 257 257 258 257 256 254 252 250 249 249 248 248 248 249 249 249 249 249 248 248 248 248 246 243 241 240 239 237 236 235 232 229 227 226 226 226 226 226 227 227 228 229 230 229 229 228 229 231 232 231 228 228 227 225 226 231 236 238 240 242 244 247 248 250 252 254 256 258 259
271 270 269 267 266 265 264 263 262 261 260 260 258 257 257 256 255 255 255 254 254 254 253 251 250 248 248 247 247 246 246 246 246 246 247 247 247 246 246 246 247 246 244 241 241 240 237 236 236 234 230 228 227 227 226 226 226 227 227 228 229 229 230 230 229 229 230 231 231 229 229 229 225 225 229 234 237 239 241 244 246 247 249 251 253 255 257 258
272 271 269 268 267 265 264 263 262 261 260 258 257 256 255 254 253 253 252 251 249 248 248 247 247 246 246 246 245 243 243 243 243 244 245 245 244 244 244 245 246 246 244 242 242 241 238 236 236 235 232 230 228 227 227 226 226 227 227 227 228 229 230 230 230 230 231 232 232 231 231 231 229 227 229 233 236 238 240 242 244 246 248 250 252 254 255 257
271 270 269 268 267 265 264 262 261 260 258 257 255 254 253 252 251 251 249 247 246 245 244 243 243 243 242 241 241 240 240 240 240 241 242 242 241 241 241 242 244 245 244 242 242 241 239 237 237 236 234 232 230 228 227 227 227 226 227 227 228 229 230 231 231 232 233 233 233 233 232 231 230 228 229 232 235 237 239 241 243 245 248 250 252 253 254 255
Height
10996 10996 10996 10996 10996 10997 10997 10997 10998 10998 10998 10998 10999 10999 11000 11000 11000 11001 11001 11001 11001 11002 11002 11002 11001 11001 11001 11001 11000 11000 10999 10998 10997 10996 10995 10994 10993 10992 10991 10989 10988 10987 10986 10984 10983 10982 10981 10980 10979 10978 10978 10977 10976 10975 10975 10975 10975 10976 10977 10976 10977 10977 10978 10979 10980 10981 10982 10983 10984 10985 10986 10986 10987 10988 10988 10988 10989 10989 10989 10988 10988 10989 10989 10989 10989 10988 10988 10988
10993 10993 10994 10994 10994 10995 10995 10995 10996 10996 10996 10996 10997 10997 10998 10998 10999 10999 10999 11000 11000 11000 11001 11001 11001 11000 11000 11000 11000 11000 10999 10998 10997 10996 10995 10994 10993 10993 10992 10991 10990 10989 10987 10986 10985 10983 10982 10981 10980 10979 10978 10977 10976 10975 10973 10973 10973 10974 10975 10975 10975 10976 10976 10977 10978 10980 10981 10982 10983 10984 10985 10985 10986 10986 10986 10987 10987 10987 10987 10987 10987 10987 10987 10987 10987 10986 10986 10986
10990 10990 10991 10991 10992 10992 10993 10993 10993 10994 10994 10994 10994 10995 10996 10997 10997 10997 10997 10998 10998 10999 10999 11000 11000 11000 11000 11000 11000 11000 10999 10998 10997 10997 10996 10995 10994 10993 10993 10992 10991 10990 10988 10987 10986 10984 10983 10982 10980 10979 10978 10977 10976 10974 10972 10971 10971 10972 10972 10972 10973 10974 10975 10976 10977 10978 10979 10980 10981 10982 10983 10984 10984 10985 10985 10985 10985 10985 10985 10986 10986 10986 10985 10985 10985 10985 10985 10985
10987 10987 10988 10988 10989 10989 10990 10990 10991 10991 10991 10992 10992 10993 10993 10994 10995 10995 10995 10996 10996 10996 10997 10998 10999 10999 10999 10999 10999 10999 10999 10999 10998 10997 10996 10995 10994 10993 10993 10992 10992 10991 10989 10988 10987 10986 10984 10983 10981 10980 10978 10977 10975 10974 10972 10970 10969 10969 10970 10970 10971 10972 10973 10975 10976 10977 10978 10979 10980 10981 10982 10982 10983 10983 10984 10984 10984 10985 10985 10985 10985 10985 10985 10984 10985 10985 10985 10985
10984 10984 10984 10985 10985 10986 10987 10987 10988 10988 10988 10989 10989 10990 10990 10991 10992 10993 10993 10994 10994 10995 10995 10996 10997 10998 10998 10998 10999 10999 10998 10998 10998 10996 10996 10995 10994 10994 10993 10993 10992 10991 10990 10989 10988 10986 10985 10984 10982 10981 10979 10977 10975 10973 10971 10969 10968 10968 10968 10968 10969 10971 10972 10974 10975 10976 10977 10978 10979 10980 10980 10980 10981 10982 10982 10983 10984 10984 10984 10984 10984 10984 10984 10984 10984 10984 10984 10984
10981 10981 10981 10982 10982 10983 10983 10984 10984 10985 10985 10985 10985 10986 10987 10988 10989 10990 10991 10991 10992 10992 10993 10993 10994 10996 10997 10997 10997 10998 10997 10997 10997 10996 10995 10995 10994 10994 10993 10993 10992 10991 10991 10990 10988 10987 10986 10985 10983 10982 10980 10978 10975 10973 10972 10969 10968 10967 10967 10967 10968 10969 10971 10973 10974 10975 10977 10978 10979 10979 10979 10979 10980 10980 10981 10982 10983 10984 10984 10984 10984 10984 10984 10984 10984 10984 10984 10984
10977 10977 10978 10978 10979 10979 10980 10980 10981 10981 10981 10982 10982 10983 10984 10984 10985 10986 10988 10989 10989 10990 10990 10991 10992 10993 10994 10996 10996 10997 10996 10996 10996 10996 10995 10994 10994 10993 10993 10992 10992 10991 10991 10990 10989 10988 10986 10985 10984 10982 10981 10979 10976 10974 10973 10971 10968 10967 10966 10966 10967 10969 10971 10973 10974 10975 10976 10977 10978 10978 10979 10979 10979 10980 10980 10982 10982 10983 10983 10983 10983 10983 10984 10984 10983 10983 10983 10983
10973 10973 10974 10974 10975 10975 10976 10977 10977 10978 10978 10978 10978 10979 10980 10981 10981 10983 10984 10986 10987 10987 10988 10988 10989 10989 10991 10993 10994 10995 10995 10994 10995 10995 10994 10993 10993 10992 10992 10991 10991 10991 10990 10990 10989 10988 10987 10985 10984 10983 10982 10980 10978 10976 10974 10972 10970 10967 10966 10966 10967 10968 10970 10973 10974 10975 10976 10977 10977 10978 10978 10978 10978 10979 10980 10981 10981 10982 10982 10982 10982 10983 10983 10982 10982 10982 10982 10982
10969 10969 10969 10970 10970 10971 10971 10972 10973 10974 10974 10974 10974 10975 10976 10977 10978 10979 10980 10982 10983 10984 10985 10985 10985 10986 10987 10990 10992 10994 10993 10992 10993 10993 10993 10992 10991 10991 10991 10990 10989 10989 10989 10989 10989 10988 10987 10986 10985 10984 10983 10982 10980 10978 10975 10974 10971 10969 10968 10967 10967 10968 10971 10973 10974 10975 10975 10976 10977 10977 10977 10977 10977 10978 10979 10980 10981 10981 10982 10982 10982 10982 10982 10981 10981 10981 10981 10982
10964 10964 10964 10965 10965 10966 10966 10967 10968 10969 10969 10970 10970 10971 10971 10973 10974 10975 10976 10978 10979 10980 10981 10982 10982 10983 10984 10986 10989 10991 10990 10990 10991 10992 10991 10991 10990 10989 10989 10989 10988 10988 10988 10988 10989 10988 10987 10986 10985 10984 10983 10983 10981 10980 10977 10975 10973 10972 10970 10969 10969 10970 10971 10973 10974 10975 10975 10976 10976 10977 10977 10977 10977 10977 10978 10979 10980 10981 10981 10981 10981 10981 10981 10981 10981 10981 10981 10981
10957 10958 10959 10959 10960 10960 10961 10962 10963 10964 10965 10965 10965 10966 10967 10968 10969 10971 10972 10973 10975 10976 10977 10978 10979 10980 10981 10983 10986 10987 10984 10986 10990 10990 10990 10989 10988 10988 10988 10988 10988 10987 10987 10987 10988 10988 10987 10986 10985 10985 10984 10983 10983 10982 10980 10977 10975 10974 10972 10971 10970 10971 10972 10973 10974 10974 10975 10976 10976 10976 10976 10976 10976 10977 10977 10978 10979 10980 10980 10980 10980 10981 10981 10981 10981 10981 10982 10982
10951 10951 10952 10953 10953 10954 10955 10956 10957 10959 10959 10959 10959 10960 10962 10963 10965 10966 10968 10969 10970 10971 10972 10973 10975 10976 10978 10980 10982 10981 10980 10983 10987 10988 10988 10987 10986 10987 10986 10987 10987 10986 10986 10986 10987 10987 10987 10987 10985 10985 10984 10984 10983 10983 10981 10979 10977 10976 10975 10974 10973 10972 10972 10972 10973 10974 10975 10975 10976 10976 10976 10976 10976 10976 10977 10977 10978 10979 10980 10980 10980 10980 10981 10981 10981 10982 10982 10982
10945 10945 10946 10946 10947 10947 10948 10949 10951 10952 10953 10953 10953 10954 10956 10957 10959 10960 10962 10964 10965 10966 10968 10969 10970 10971 10974 10977 10977 10977 10978 10980 10984 10985 10986 10985 10985 10985 10985 10985 10985 10985 10985 10985 10985 10986 10986 10986 10985 10985 10984 10984 10983 10983 10982 10981 10979 10977 10976 10975 10974 10974 10973 10973 10973 10974 10975 10975 10975 10976 10976 10976 10976 10976 10976 10977 10977 10978 10979 10980 10980 10981 10981 10981 10982 10982 10983 10983
10938 10939 10939 10940 10941 10941 10941 10941 10943 10945 10946 10946 10946 10947 10949 10950 10952 10954 10956 10958 10960 10961 10962 10964 10965 10966 10970 10973 10972 10973 10975 10977 10980 10982 10982 10983 10982 10982 10982 10983 10983 10984 10984 10983 10983 10984 10985 10985 10985 10984 10984 10984 10983 10983 10983 10982 10981 10979 10978 10976 10976 10976 10975 10975 10975 10975 10975 10975 10976 10976 10976 10976 10976 10976 10976 10976 10977 10978 10979 10980 10981 10981 10982 10982 10983 10983 10984 10985
10931 10931 10932 10933 10934 10934 10934 10934 10936 10937 10939 10939 10939 10940 10941 10943 10944 10946 10949 10951 10953 10955 10956 10958 10960 10961 10964 10968 10968 10968 10971 10973 10975 10977 10978 10979 10979 10979 10980 10980 10981 10982 10982 10981 10981 10982 10983 10983 10984 10984 10983 10983 10983 10982 10982 10982 10981 10980 10979 10978 10978 10978 10978 10978 10977 10976 10976 10976 10976 10976 10976 10976 10976 10976 10976 10976 10977 10978 10979 10980 10981 10982 10983 10983 10984 10984 10985 10985
10924 10924 10925 10926 10927 10927 10926 10927 10928 10930 10931 10931 10932 10933 10934 10935 10936 10938 10941 10944 10946 10948 10949 10952 10954 10955 10958 10962 10963 10963 10965 10967 10970 10972 10973 10974 10975 10976 10976 10977 10978 10979 10980 10979 10979 10979 10980 10981 10982 10983 10983 10982 10982 10982 10982 10982 10982 10981 10981 10980 10979 10979 10980 10980 10979 10978 10977 10977 10976 10976 10976 10976 10976 10977 10977 10977 10978 10978 10980 10981 10982 10984 10984 10984 10985 10985 10985 10986
10918 10918 10919 10920 10920 10920 10919 10919 10921 10922 10923 10923 10924 10925 10926 10927 10927 10929 10932 10935 10938 10940 10942 10945 10947 10949 10951 10956 10959 10958 10958 10960 10965 10967 10969 10970 10971 10972 10973 10973 10974 10976 10977 10977 10976 10976 10977 10978 10980 10981 10982 10982 10981 10981 10981 10981 10982 10982 10982 10981 10981 10980 10980 10981 10981 10979 10978 10977 10977 10976 10976 10976 10977 10977 10979 10979 10979 10980 10981 10982 10984 10985 10986 10986 10986 10986 10986 10986
10912 10912 10912 10913 10914 10913 10912 10912 10913 10914 10915 10916 10916 10917 10918 10919 10919 10921 10923 10925 10929 10932 10935 10937 10940 10942 10944 10949 10953 10953 10952 10954 10958 10962 10964 10965 10967 10968 10969 10970 10971 10972 10974 10975 10974 10973 10974 10975 10977 10978 10980 10980 10980 10980 10980 10980 10981 10981 10982 10982 10981 10981 10980 10981 10981 10980 10979 10978 10977 10976 10976 10976 10976 10978 10981 10981 10980 10981 10982 10983 10985 10986 10986 10986 10987 10986 10987 10987
10906 10906 10906 10907 10908 10907 10906 10906 10906 10907 10908 10908 10908 10909 10911 10911 10912 10913 10914 10915 10918 10922 10926 10929 10931 10933 10936 10941 10945 10946 10945 10947 10951 10956 10958 10960 10962 10964 10965 10967 10968 10968 10970 10971 10971 10969 10970 10972 10973 10974 10977 10979 10979 10979 10979 10979 10980 10981 10981 10981 10981 10981 10980 10980 10981 10980 10980 10979 10978 10977 10977 10977 10978 10980 10983 10982 10981 10982 10983 10984 10986 10986 10986 10987 10987 10987 10988 10988
10900 10899 10899 10900 10901 10901 10900 10899 10900 10900 10900 10901 10900 10901 10902 10903 10905 10905 10905 10906 10908 10912 10916 10920 10922 10924 10928 10934 10937 10938 10938 10940 10944 10950 10953 10954 10957 10959 10961 10962 10963 10965 10966 10967 10968 10966 10967 10969 10969 10970 10973 10976 10977 10977 10977 10978 10978 10979 10980 10980 10980 10980 10980 10980 10980 10979 10980 10980 10979 10978 10978 10978 10979 10981 10983 10982 10982 10983 10984 10985 10986 10987 10987 10987 10987 10988 10988 10989
10894 10893 10892 10893 10894 10894 10893 10893 10894 10893 10893 10894 10894 10894 10894 10895 10897 10897 10896 10897 10899 10903 10906 10910 10912 10914 10920 10925 10928 10930 10931 10933 10937 10942 10946 10947 10950 10954 10955 10957 10959 10961 10962 10962 10964 10963 10964 10965 10963 10965 10970 10972 10974 10975 10975 10975 10976 10977 10978 10978 10979 10979 10979 10979 10979 10978 10979 10980 10979 10979 10979 10979 10980 10981 10982 10982 10982 10983 10984 10985 10986 10987 10987 10987 10988 10988 10988 10989
10888 10886 10886 10886 10887 10888 10887 10886 10887 10886 10886 10886 10887 10887 10887 10887 10889 10889 10889 10887 10889 10894 10897 10900 10903 10905 10910 10914 10918 10922 10923 10925 10929 10934 10938 10940 10944 10947 10949 10952 10954 10956 10956 10958 10960 10960 10962 10961 10956 10959 10965 10968 10971 10973 10972 10972 10973 10975 10976 10976 10977 10977 10978 10978 10978 10977 10977 10979 10979 10979 10979 10979 10980 10981 10982 10982 10982 10983 10984 10985 10986 10986 10986 10987 10987 10988 10988 10988
10882 10880 10880 10879 10880 10881 10881 10880 10880 10880 10879 10879 10880 10880 10880 10881 10881 10881 10882 10879 10880 10886 10889 10890 10894 10896 10900 10903 10907 10912 10915 10917 10921 10926 10930 10933 10936 10940 10943 10945 10948 10950 10952 10955 10956 10956 10958 10955 10950 10954 10960 10964 10967 10969 10969 10969 10970 10972 10973 10973 10975 10976 10976 10977 10977 10976 10976 10977 10978 10978 10978 10978 10979 10980 10981 10983 10983 10983 10983 10984 10985 10985 10986 10986 10987 10987 10988 10988
10877 10875 10874 10873 10874 10875 10874 10874 10874 10873 10872 10873 10873 10872 10873 10874 10874 10874 10875 10873 10870 10876 10882 10882 10884 10887 10890 10893 10895 10900 10905 10909 10914 10917 10921 10924 10927 10931 10935 10937 10941 10945 10948 10949 10951 10952 10952 10950 10946 10949 10955 10959 10962 10965 10966 10966 10966 10968 10969 10970 10972 10973 10974 10975 10976 10975 10975 10976 10976 10976 10976 10977 10977 10978 10980 10982 10983 10983 10983 10983 10984 10984 10985 10985 10985 10986 10987 10987
10872 10869 10868 10867 10868 10869 10869 10869 10868 10867 10866 10866 10865 10866 10866 10867 10868 10867 10867 10868 10863 10865 10873 10876 10876 10878 10881 10884 10885 10887 10893 10900 10906 10908 10910 10915 10919 10923 10927 10930 10935 10940 10942 10942 10945 10946 10946 10946 10942 10943 10950 10954 10956 10960 10962 10962 10962 10963 10966 10967 10968 10970 10972 10973 10973 10974 10974 10975 10974 10974 10974 10975 10976 10977 10978 10979 10981 10982 10982 10982 10982 10983 10983 10983 10984 10985 10985 10986
10867 10864 10862 10861 10861 10862 10864 10864 10863 10862 10860 10859 10858 10859 10860 10860 10861 10860 10860 10862 10858 10856 10863 10868 10868 10870 10872 10875 10876 10877 10881 10888 10895 10899 10900 10904 10910 10914 10918 10923 10927 10931 10934 10936 10939 10941 10942 10942 10938 10937 10944 10949 10951 10954 10957 10958 10959 10960 10961 10962 10964 10967 10969 10970 10970 10971 10972 10972 10972 10972 10973 10974 10974 10975 10976 10977 10978 10980 10981 10980 10981 10981 10981 10982 10982 10983 10984 10985
10862 10860 10856 10854 10854 10855 10857 10859 10858 10856 10855 10853 10852 10852 10853 10853 10853 10854 10854 10857 10855 10849 10852 10858 10860 10862 10863 10865 10867 10868 10871 10877 10884 10889 10890 10893 10900 10905 10909 10914 10917 10921 10926 10929 10933 10936 10937 10937 10933 10932 10938 10943 10947 10949 10950 10953 10955 10955 10954 10956 10960 10963 10965 10967 10967 10968 10969 10970 10970 10970 10970 10972 10972 10973 10974 10975 10976 10978 10979 10979 10979 10979 10980 10980 10981 10981 10982 10983
10855 10854 10850 10847 10848 10847 10849 10852 10853 10851 10848 10847 10847 10847 10847 10846 10846 10846 10847 10850 10850 10844 10844 10848 10849 10852 10855 10856 10859 10860 10861 10867 10873 10878 10881 10883 10889 10894 10899 10904 10907 10911 10917 10921 10926 10929 10930 10930 10927 10926 10931 10938 10942 10941 10941 10946 10949 10949 10949 10952 10956 10959 10961 10963 10964 10965 10966 10968 10969 10968 10968 10969 10970 10971 10972 10973 10974 10975 10976 10977 10977 10978 10978 10979 10979 10980 10981 10982
10847 10847 10843 10840 10840 10840 10840 10844 10846 10844 10842 10841 10841 10841 10840 10840 10840 10839 10839 10842 10840 10837 10838 10840 10841 10843 10845 10847 10850 10852 10854 10858 10863 10868 10871 10873 10878 10884 10889 10894 10896 10902 10910 10913 10917 10922 10924 10924 10922 10921 10925 10933 10936 10934 10934 10938 10941 10944 10946 10947 10951 10955 10957 10959 10961 10962 10963 10966 10967 10965 10966 10967 10968 10969 10970 10971 10972 10973 10974 10975 10975 10976 10976 10977 10977 10978 10978 10979
10839 10839 10836 10832 10831 10831 10831 10834 10837 10835 10835 10835 10834 10834 10834 10834 10834 10833 10835 10834 10829 10828 10832 10834 10835 10835 10836 10839 10841 10844 10847 10849 10853 10859 10863 10864 10867 10872 10879 10884 10887 10893 10901 10904 10908 10916 10919 10918 10917 10917 10921 10926 10928 10928 10930 10931 10934 10938 10941 10942 10946 10951 10953 10955 10957 10958 10960 10964 10964 10963 10963 10964 10966 10966 10967 10968 10969 10970 10971 10972 10972 10973 10974 10974 10975 10976 10976 10977
10830 10830 10829 10825 10822 10822 10823 10824 10826 10825 10827 10828 10827 10827 10828 10828 10828 10828 10830 10827 10820 10821 10825 10826 10828 10827 10829 10832 10834 10836 10839 10840 10843 10848 10853 10856 10857 10861 10868 10874 10878 10883 10890 10894 10899 10906 10910 10910 10911 10913 10915 10917 10921 10924 10925 10925 10926 10930 10935 10939 10943 10946 10949 10951 10953 10955 10958 10961 10961 10959 10960 10962 10962 10962 10963 10965 10966 10967 10968 10968 10969 10970 10971 10972 10972 10973 10974 10974
10821 10821 10820 10818 10815 10813 10814 10814 10814 10815 10817 10818 10818 10819 10819 10821 10824 10824 10823 10818 10813 10816 10817 10816 10820 10821 10823 10826 10827 10829 10830 10831 10834 10837 10842 10847 10849 10851 10855 10861 10868 10873 10879 10884 10887 10894 10901 10902 10901 10904 10907 10909 10914 10919 10919 10919 10920 10922 10927 10934 10938 10941 10945 10948 10950 10953 10955 10957 10956 10954 10957 10959 10957 10958 10962 10962 10962 10964 10964 10964 10966 10967 10968 10969 10970 10970 10971 10971
10812 10812 10811 10810 10807 10803 10804 10804 10803 10805 10808 10807 10808 10810 10810 10815 10820 10818 10814 10810 10808 10810 10809 10808 10811 10812 10814 10817 10819 10822 10821 10822 10826 10827 10830 10836 10840 10843 10844 10849 10856 10861 10867 10872 10876 10884 10892 10893 10893 10898 10901 10902 10906 10912 10913 10915 10916 10915 10919 10928 10934 10936 10940 10943 10946 10949 10950 10952 10951 10948 10953 10956 10951 10954 10960 10959 10958 10961 10961 10961 10963 10964 10965 10965 10967 10968 10968 10968
10801 10801 10801 10801 10799 10795 10793 10793 10792 10793 10796 10797 10798 10799 10802 10809 10811 10808 10805 10804 10801 10801 10801 10802 10803 10803 10805 10807 10810 10814 10814 10816 10818 10818 10820 10825 10829 10833 10835 10837 10843 10848 10854 10860 10866 10874 10881 10885 10888 10893 10895 10895 10898 10903 10907 10908 10909 10908 10909 10918 10926 10930 10934 10937 10939 10942 10943 10945 10944 10942 10950 10953 10946 10949 10956 10956 10956 10958 10958 10958 10959 10960 10961 10963 10964 10965 10965 10965
10788 10790 10790 10789 10789 10786 10782 10781 10780 10780 10783 10787 10786 10789 10796 10801 10799 10796 10797 10796 10793 10791 10793 10794 10794 10795 10796 10797 10801 10805 10806 10809 10810 10808 10811 10815 10818 10821 10824 10828 10832 10835 10841 10850 10857 10862 10868 10875 10879 10881 10883 10885 10888 10892 10896 10898 10902 10903 10900 10907 10919 10926 10929 10929 10931 10935 10936 10938 10939 10940 10946 10947 10941 10945 10952 10952 10953 10954 10953 10954 10955 10956 10959 10960 10961 10962 10962 10963
10776 10777 10778 10778 10777 10775 10771 10770 10768 10767 10769 10773 10774 10781 10788 10788 10786 10785 10787 10787 10785 10783 10783 10785 10786 10788 10789 10789 10791 10794 10796 10799 10802 10801 10801 10805 10808 10811 10814 10817 10821 10823 10828 10837 10844 10850 10857 10863 10867 10870 10873 10877 10880 10882 10885 10890 10896 10896 10893 10901 10913 10918 10920 10922 10925 10928 10930 10933 10937 10936 10940 10940 10937 10943 10949 10948 10949 10949 10949 10951 10952 10954 10956 10957 10958 10959 10959 10960
10762 10762 10764 10765 10764 10762 10760 10758 10755 10754 10755 10757 10763 10773 10776 10774 10774 10774 10775 10776 10775 10774 10773 10775 10778 10779 10780 10780 10781 10784 10786 10788 10792 10793 10792 10795 10799 10801 10803 10805 10809 10813 10816 10823 10831 10838 10844 10849 10856 10862 10863 10867 10871 10870 10872 10881 10887 10889 10890 10896 10902 10904 10910 10916 10918 10922 10924 10929 10933 10932 10934 10935 10933 10939 10944 10943 10944 10944 10945 10947 10948 10950 10952 10952 10954 10956 10956 10957
10749 10748 10748 10751 10751 10749 10747 10745 10743 10742 10741 10743 10753 10761 10762 10761 10762 10761 10762 10764 10764 10764 10765 10766 10768 10770 10771 10770 10770 10775 10777 10776 10782 10785 10784 10787 10789 10791 10793 10795 10797 10801 10804 10810 10817 10826 10833 10837 10846 10853 10852 10854 10858 10856 10860 10871 10880 10885 10887 10888 10890 10894 10903 10909 10911 10916 10919 10924 10928 10927 10928 10929 10928 10933 10938 10938 10938 10940 10940 10942 10944 10946 10947 10948 10950 10952 10953 10954
10736 10733 10733 10735 10735 10734 10733 10731 10730 10728 10728 10733 10741 10746 10746 10747 10749 10749 10749 10750 10751 10753 10756 10756 10756 10759 10762 10760 10760 10766 10767 10766 10771 10774 10775 10778 10779 10780 10784 10785 10787 10789 10793 10800 10805 10813 10822 10825 10833 10841 10839 10840 10845 10847 10853 10867 10876 10879 10880 10881 10884 10889 10895 10900 10904 10910 10913 10917 10921 10921 10922 10923 10921 10926 10932 10932 10932 10934 10936 10938 10940 10941 10943 10944 10945 10947 10949 10950
10723 10719 10718 10719 10717 10717 10717 10716 10715 10713 10714 10720 10726 10729 10731 10732 10735 10736 10736 10736 10737 10741 10745 10745 10745 10749 10751 10750 10750 10754 10756 10756 10760 10763 10765 10769 10770 10771 10772 10773 10777 10779 10781 10788 10794 10800 10809 10813 10819 10827 10826 10826 10836 10845 10854 10864 10868 10869 10873 10877 10879 10883 10887 10890 10897 10903 10906 10911 10915 10916 10918 10918 10913 10916 10925 10928 10927 10929 10931 10933 10935 10937 10938 10939 10941 10942 10944 10945
10707 10704 10704 10703 10699 10698 10698 10698 10699 10699 10699 10705 10709 10712 10714 10717 10720 10722 10723 10723 10724 10728 10732 10733 10735 10737 10739 10740 10740 10743 10745 10746 10749 10753 10755 10759 10761 10761 10762 10763 10767 10769 10770 10776 10782 10788 10795 10800 10805 10812 10816 10819 10831 10844 10848 10850 10852 10857 10865 10870 10870 10875 10877 10879 10889 10898 10900 10905 10911 10912 10914 10911 10907 10908 10915 10921 10923 10924 10926 10928 10930 10932 10933 10934 10936 10937 10939 10939
10689 10687 10687 10686 10682 10679 10679 10680 10682 10681 10683 10689 10692 10693 10695 10700 10705 10707 10708 10710 10710 10713 10717 10719 10724 10726 10726 10729 10730 10731 10733 10736 10739 10742 10745 10748 10749 10750 10753 10755 10756 10758 10760 10764 10770 10774 10780 10788 10792 10798 10808 10813 10822 10832 10833 10833 10838 10843 10852 10857 10859 10863 10866 10870 10884 10892 10894 10901 10905 10905 10906 10906 10904 10903 10905 10911 10916 10918 10921 10922 10923 10925 10927 10928 10930 10932 10933 10934
10671 10669 10666 10667 10665 10661 10660 10662 10663 10662 10665 10670 10673 10674 10677 10683 10688 10689 10692 10695 10696 10697 10702 10706 10711 10713 10714 10717 10718 10719 10721 10724 10728 10731 10734 10737 10737 10738 10743 10746 10746 10748 10750 10752 10756 10761 10769 10779 10783 10788 10799 10805 10809 10816 10817 10820 10825 10829 10839 10848 10851 10857 10862 10869 10880 10884 10885 10893 10896 10896 10901 10903 10903 10899 10896 10901 10908 10911 10914 10915 10916 10919 10921 10923 10925 10926 10927 10929
10650 10649 10644 10644 10646 10643 10640 10643 10643 10643 10646 10651 10653 10656 10660 10663 10668 10671 10675 10679 10681 10681 10686 10692 10696 10699 10701 10704 10706 10708 10709 10713 10717 10719 10723 10726 10726 10728 10731 10735 10736 10737 10739 10741 10745 10753 10761 10769 10772 10776 10786 10794 10797 10801 10806 10814 10819 10823 10835 10844 10847 10855 10860 10864 10871 10871 10875 10886 10887 10891 10900 10899 10897 10896 10890 10891 10897 10902 10907 10909 10910 10913 10915 10917 10919 10920 10922 10924
10627 10626 10622 10620 10623 10623 10621 10621 10622 10624 10627 10630 10634 10639 10641 10643 10648 10653 10656 10661 10664 10665 10671 10677 10681 10685 10688 10690 10694 10696 10697 10701 10705 10707 10712 10715 10716 10716 10719 10724 10726 10726 10729 10732 10737 10744 10749 10754 10762 10768 10776 10785 10791 10795 10803 10814 10818 10820 10829 10837 10842 10849 10852 10855 10859 10860 10871 10882 10881 10888 10898 10893 10891 10893 10886 10883 10888 10894 10899 10902 10904 10906 10908 10910 10912 10914 10917 10919
10603 10601 10597 10594 10597 10600 10599 10597 10600 10603 10605 10610 10616 10620 10621 10624 10629 10633 10637 10643 10647 10649 10654 10661 10665 10670 10674 10677 10682 10684 10684 10688 10692 10695 10700 10703 10704 10705 10708 10713 10716 10717 10720 10723 10728 10734 10736 10742 10755 10761 10767 10777 10783 10787 10794 10802 10807 10809 10815 10823 10829 10835 10840 10843 10845 10853 10869 10876 10873 10883 10891 10886 10887 10891 10884 10878 10881 10887 10891 10894 10897 10900 10901 10904 10906 10909 10912 10913
10576 10575 10572 10569 10569 10571 10572 10573 10575 10578 10581 10587 10595 10599 10601 10604 10609 10614 10619 10625 10628 10631 10637 10644 10649 10655 10660 10664 10667 10670 10672 10675 10679 10683 10687 10690 10694 10696 10698 10702 10705 10706 10709 10714 10720 10725 10727 10735 10746 10751 10757 10765 10771 10775 10780 10787 10794 10799 10802 10808 10814 10821 10827 10829 10836 10852 10863 10860 10863 10876 10880 10879 10885 10888 10879 10872 10874 10880 10884 10886 10890 10893 10895 10897 10899 10903 10906 10907
10545 10546 10544 10542 10541 10540 10542 10545 10547 10550 10556 10562 10570 10577 10580 10584 10588 10593 10600 10606 10609 10613 10620 10627 10634 10640 10645 10649 10652 10657 10660 10662 10666 10672 10675 10679 10684 10686 10686 10690 10694 10696 10700 10706 10712 10715 10720 10728 10734 10739 10747 10753 10757 10762 10767 10773 10782 10787 10791 10797 10805 10811 10816 10821 10833 10846 10846 10845 10857 10868 10868 10872 10881 10881 10874 10867 10867 10872 10876 10878 10883 10887 10889 10892 10893 10896 10899 10901
10514 10515 10514 10513 10515 10514 10511 10513 10517 10523 10530 10537 10544 10552 10557 10562 10567 10571 10578 10587 10592 10597 10603 10611 10617 10623 10629 10633 10638 10644 10646 10649 10654 10659 10663 10668 10673 10674 10675 10678 10683 10685 10689 10697 10703 10707 10714 10719 10721 10727 10736 10741 10746 10752 10756 10763 10770 10774 10780 10788 10794 10801 10807 10815 10827 10833 10831 10836 10850 10855 10856 10865 10872 10872 10867 10861 10859 10864 10868 10871 10878 10882 10884 10886 10887 10889 10892 10893
10483 10483 10483 10482 10486 10487 10484 10484 10488 10496 10503 10511 10519 10526 10532 10538 10543 10548 10558 10570 10577 10580 10585 10591 10598 10605 10612 10619 10625 10631 10634 10638 10642 10646 10652 10658 10662 10663 10664 10667 10672 10675 10680 10688 10694 10700 10706 10709 10710 10717 10726 10732 10738 10743 10746 10753 10759 10763 10770 10778 10784 10791 10799 10808 10818 10822 10823 10831 10841 10844 10849 10858 10863 10862 10858 10853 10853 10858 10863 10867 10873 10875 10877 10880 10881 10884 10885 10885
10452 10453 10453 10453 10457 10459 10458 10458 10461 10469 10477 10484 10492 10500 10508 10514 10520 10529 10541 10551 10556 10560 10565 10572 10581 10592 10601 10608 10613 10618 10621 10626 10631 10636 10643 10649 10651 10653 10654 10658 10662 10666 10671 10679 10686 10692 10698 10700 10703 10709 10716 10723 10729 10732 10736 10742 10746 10749 10757 10766 10774 10783 10792 10801 10810 10815 10819 10827 10833 10836 10845 10855 10857 10853 10849 10847 10848 10853 10858 10863 10866 10868 10871 10874 10876 10879 10879 10879
10426 10426 10427 10429 10432 10434 10433 10435 10438 10445 10452 10458 10465 10475 10485 10492 10500 10510 10519 10526 10533 10540 10549 10559 10569 10580 10588 10593 10597 10603 10609 10616 10622 10627 10633 10638 10639 10642 10645 10647 10652 10656 10662 10671 10678 10684 10690 10692 10695 10702 10708 10713 10716 10720 10726 10729 10729 10735 10748 10760 10769 10778 10787 10795 10803 10810 10815 10820 10825 10832 10844 10851 10846 10841 10841 10841 10842 10847 10853 10857 10859 10862 10866 10869 10872 10874 10874 10874